Hourly Data Report for September 14, 2017

All times are specified in Local Standard Time (LST). Add 1 hour to adjust for Daylight Saving Time where and when it is observed.

QIKIQTARJUAQ A
NUNAVUT

67°32'48.000" N
64°01'54.000" W
5.50 m
2400577
YVM

Download Data

Hourly Data (September 2017)
Hourly Data Report for September 14, 2017
Temp Definition
°C
Dew Point Temp Definition
°C
Rel Hum Definition
%
Wind Dir Definition
10's deg

Wind Spd Definition
km/h
Visibility Definition
km
Stn Press Definition
kPa
Hmdx Definition


Wind Chill Definition


Weather Definition


TIME
00:00 Legend Double Dagger 2.1 0.6 90 34 18 16.1 100.89     Rain
01:00 Legend Double Dagger 2.3 0.5 88 33 21 16.1 100.85     Rain
02:00 Legend Double Dagger 2.6 0.7 87 36 18 16.1 100.82     LegendNANA
03:00 Legend Double Dagger 2.6 0.5 86 2 22 16.1 100.78     LegendNANA
04:00 Legend Double Dagger 2.3 1.0 91 2 15 16.1 100.74     LegendNANA
05:00 Legend Double Dagger 2.4 0.9 90 3 11 16.1 100.70     Rain
06:00 Legend Double Dagger 3.3 -0.1 79 33 18 16.1 100.63     Rain
07:00 Legend Double Dagger 3.3 0.2 80 LegendMM 4 16.1 100.58     LegendNANA
08:00 Legend Double Dagger 3.5 0.5 81 32 18 16.1 100.52     Rain
09:00 Legend Double Dagger 2.9 1.4 90 7 13 16.1 100.49     Rain
10:00 Legend Double Dagger 3.0 1.2 88 10 9 16.1 100.47     Rain
11:00 Legend Double Dagger 2.1 1.4 95 36 24 9.7 100.46     Rain,Fog
12:00 Legend Double Dagger 1.8 1.2 96 1 30 8.1 100.45     Rain,Fog
13:00 Legend Double Dagger 1.3 1.0 98 36 35 4.8 100.46     Snow
14:00 Legend Double Dagger 1.2 0.9 98 36 28 4.8 100.46     Snow
15:00 Legend Double Dagger 1.2 0.8 97 36 32 6.4 100.46     Snow
16:00 Legend Double Dagger 1.4 0.7 95 35 30 8.1 100.47     Snow
17:00 Legend Double Dagger 1.1 0.7 97 35 34 4.8 100.50     Rain,Fog
18:00 Legend Double Dagger 1.1 0.4 95 35 26 6.4 100.49     Snow
19:00 Legend Double Dagger 1.1 0.4 95 36 35 9.7 100.45     Rain,Fog
20:00 Legend Double Dagger 1.2 0.3 94 36 34 11.3 100.43     Rain
21:00 Legend Double Dagger 1.2 -0.3 90 36 35 16.1 100.38     Rain
22:00 Legend Double Dagger 1.3 -0.5 88 36 34 16.1 100.36     Rain
23:00 Legend Double Dagger 1.2 -0.5 89 36 32 16.1 100.36     Rain

Notes on Data Quality.

Legend

  • E = Estimated
  • M = Missing
  • NA = Not Available
  • ‡ = Partner data that is not subject to review by the National Climate Archives
Date modified: